Date,TemperatureHighF,TemperatureAvgF,TemperatureLowF,DewpointHighF,DewpointAvgF,DewpointLowF,HumidityHigh,HumidityAvg,HumidityLow,PressureMaxIn,PressureMinIn,WindSpeedMaxMPH,WindSpeedAvgMPH,GustSpeedMaxMPH,PrecipitationSumIn
2013-1-1,24.1,9.8,2.5,3.1,-3.8,-6.6,65,54,34,30.14,30.04,8,3,8,0.00
2013-1-2,28.8,18.9,11.3,13.4,5.8,-0.7,67,57,36,30.05,29.95,9,4,13,0.00
2013-1-3,27.9,21.6,10.6,16.6,12.5,0.9,74,68,62,30.14,29.95,11,5,12,0.00
2013-1-4,34.9,20.5,9.5,16.2,9.1,-0.8,71,61,46,30.09,29.98,14,6,17,0.00
2013-1-5,35.2,28.0,20.3,30.0,20.2,12.5,83,72,58,30.08,29.81,13,4,14,0.00
2013-1-6,34.9,24.7,13.1,27.8,15.5,6.7,75,68,57,30.30,29.90,12,5,14,0.00
2013-1-7,39.6,25.6,11.8,24.2,15.6,5.5,76,66,51,29.93,29.69,15,4,20,0.00
2013-1-8,40.3,31.8,20.3,30.2,23.6,15.7,83,72,59,29.97,29.89,11,4,18,0.00
2013-1-9,42.6,34.9,23.5,29.7,23.3,16.6,76,63,46,30.39,29.89,17,6,22,0.00
2013-1-10,41.0,30.7,19.8,31.7,23.1,14.4,86,74,55,29.99,29.45,10,3,14,0.20
2013-1-11,45.7,39.9,35.2,43.5,37.0,31.5,92,89,85,29.92,29.61,11,3,14,0.02
2013-1-12,46.9,34.3,21.6,42.7,25.0,12.8,89,69,56,30.32,29.86,16,7,27,0.02
2013-1-13,24.8,18.2,13.1,14.0,5.2,-0.7,71,56,44,30.11,29.85,11,6,15,0.00
2013-1-14,29.8,16.3,6.1,7.9,2.0,-3.7,66,54,33,30.16,29.91,7,3,11,0.00
2013-1-15,33.6,19.8,8.4,12.4,6.9,-0.3,74,58,38,29.94,29.66,11,3,13,0.00
2013-1-16,33.4,26.2,15.4,25.8,15.4,3.6,77,63,52,29.98,29.58,12,5,15,0.00
2013-1-17,31.3,22.3,16.0,17.5,4.1,-3.9,65,46,28,30.29,29.90,11,4,11,0.00
2013-1-18,43.5,30.8,16.2,30.9,19.8,3.8,75,63,55,29.95,29.39,18,7,21,0.00
2013-1-19,49.3,37.7,16.3,32.9,25.5,-1.9,76,62,34,30.03,29.76,23,7,24,0.02
2013-1-20,18.7,11.9,7.2,1.1,-7.4,-10.6,57,41,27,30.37,29.89,15,6,18,0.00
2013-1-21,10.9,4.3,-2.0,-5.4,-14.7,-20.2,60,40,29,29.96,29.83,15,8,17,0.00
2013-1-22,10.9,2.5,-6.7,-11.0,-16.2,-20.4,54,41,29,30.02,29.92,8,4,12,0.00
2013-1-23,8.6,6.8,5.0,-7.7,-10.7,-12.2,47,43,43,30.01,29.90,11,5,14,0.05
2013-1-24,16.5,7.9,-0.4,3.2,-8.9,-16.5,55,45,35,30.24,29.89,15,4,15,0.00
2013-1-25,27.5,20.0,14.2,13.9,7.0,-0.9,71,57,42,29.99,29.51,14,6,17,0.00
2013-1-26,30.7,18.6,8.4,8.3,2.3,-3.3,60,49,30,30.17,29.89,10,3,13,0.00
2013-1-27,33.4,28.3,22.5,30.6,19.1,8.5,89,69,53,29.92,29.48,16,7,16,0.00
2013-1-28,47.1,37.2,33.6,34.9,31.8,29.0,89,81,59,29.99,29.81,9,2,11,0.09
2013-1-29,54.7,42.7,34.9,52.4,40.7,32.5,95,92,87,29.93,29.56,8,3,9,0.93
2013-1-30,34.9,27.9,15.8,32.5,23.9,6.9,92,85,67,29.97,29.74,13,2,13,0.07
2013-1-31,16.0,10.6,1.2,7.0,0.1,-11.4,75,62,47,30.44,29.92,0,0,0,0.00